Coffeyville, KS

9:48 PM CST on December 12, 2017 (GMT -0600)
Coffeyville Municipal

Weather History for KCFV - October, 2012

Change the Weather History Date:

Saturday, October 13, 2012

  Actual Average Record
Temperature  
Mean Temperature 68 °F -  
Max Temperature 73 °F 70 °F 86 °F (2017)
Min Temperature 64 °F 45 °F 33 °F (2002)
Cooling Degree Days 4    
Growing Degree Days 18 (Base 50)    
Moisture  
Dew Point 66 °F    
Average Humidity 89    
Maximum Humidity 94    
Minimum Humidity 78    
Precipitation  
Precipitation 0.22 in - - ()
Sea Level Pressure  
Sea Level Pressure 29.80 in    
Wind  
Wind Speed 15 mph (South)    
Max Wind Speed 24 mph    
Max Gust Speed 37 mph    
Visibility 6 miles    
Events Rain , Thunderstorm    
Averages and records for this station are not official NWS values.
T = Trace of Precipitation, MM = Missing Value Source: NWS Daily Summary

Daily Weather History Graph

Daily Weather History Graph

Search for Another Location

Airport or City:

Trip Planner

Search our weather history database for the weather conditions in past years. The results will help you decide how hot, cold, wet, or windy it might be!

Date:

Astronomy

Oct. 13, 2012 Rise Set
Actual Time 7:28 AM CDT 6:47 PM CDT
Civil Twilight 7:02 AM CDT 7:13 PM CDT
Nautical Twilight 6:32 AM CDT 7:43 PM CDT
Astronomical Twilight 6:02 AM CDT 8:13 PM CDT
Moon 5:21 AM CDT 5:30 PM CDT
Length of Visible Light 12h 11m
Length of Day
11h 18m
Waning Crescent, 5% of the Moon is Illuminated
Oct 13
Waning Crescent
Oct 15
New
Oct 21
First Quarter
Oct 29
Full
Nov 6
Last Quarter

Hourly Weather History & Observations

Time (CDT) Temp. Dew Point Humidity Pressure Visibility Wind Dir Wind Speed Gust Speed Precip Events Conditions
5:52 AM 66.9 °F 64.0 °F 90% 29.97 in 8.0 mi South 11.5 mph - N/A   Clear
7:52 AM 68.0 °F 64.0 °F 87% 29.95 in 8.0 mi South 16.1 mph 20.7 mph N/A   Clear
10:30 AM 69.8 °F 66.2 °F 88% 29.92 in 4.0 mi South 18.4 mph 32.2 mph 0.02 in Rain , Thunderstorm Light Rain
10:52 AM 69.1 °F 66.0 °F 90% 29.90 in 3.0 mi South 16.1 mph 25.3 mph 0.05 in Rain , Thunderstorm Light Thunderstorms and Rain
11:33 AM 69.8 °F 66.2 °F 88% 29.90 in 7.0 mi South 18.4 mph 26.5 mph 0.00 in Rain , Thunderstorm Light Thunderstorms and Rain
11:52 AM 70.0 °F 66.0 °F 87% 29.89 in 8.0 mi South 15.0 mph 25.3 mph 0.01 in Rain , Thunderstorm Light Thunderstorms and Rain
12:16 PM 69.8 °F 66.2 °F 88% 29.89 in 8.0 mi South 13.8 mph - 0.00 in   Overcast
12:52 PM 72.0 °F 66.9 °F 84% 29.86 in 10.0 mi South 15.0 mph - 0.00 in Rain Light Rain
1:30 PM 73.4 °F 66.2 °F 78% 29.84 in 10.0 mi South 12.7 mph - 0.00 in Rain , Thunderstorm Light Rain
1:52 PM 72.0 °F 66.9 °F 84% 29.82 in 2.5 mi South 15.0 mph 21.9 mph 0.09 in Rain , Thunderstorm Light Thunderstorms and Rain
2:10 PM 71.6 °F 68.0 °F 88% 29.82 in 9.0 mi South 16.1 mph 21.9 mph 0.01 in Rain Light Rain
2:52 PM 72.0 °F 68.0 °F 87% 29.79 in 8.0 mi South 18.4 mph 24.2 mph 0.01 in Rain Light Rain
3:52 PM 72.0 °F 69.1 °F 91% 29.73 in 6.0 mi South 13.8 mph - 0.06 in Rain Light Rain
4:52 PM 73.9 °F 69.1 °F 85% 29.72 in 10.0 mi South 18.4 mph 29.9 mph 0.00 in   Partly Cloudy
5:32 PM 73.4 °F 69.8 °F 88% 29.76 in 6.0 mi South 17.3 mph 25.3 mph 0.03 in Rain , Thunderstorm Thunderstorms and Rain
5:49 PM 71.6 °F 69.8 °F 94% 29.76 in 4.0 mi West 11.5 mph - 0.08 in Rain , Thunderstorm Thunderstorms and Rain
6:04 PM 69.8 °F 64.4 °F 83% 29.78 in 2.0 mi WSW 24.2 mph 36.8 mph 0.17 in Rain , Thunderstorm Heavy Thunderstorms and Rain
6:11 PM 66.2 °F 64.4 °F 94% 29.78 in 0.8 mi South 16.1 mph 36.8 mph 0.46 in Rain , Thunderstorm Heavy Thunderstorms and Rain
6:14 PM 66.2 °F 64.4 °F 94% 29.76 in 0.8 mi South 15.0 mph 29.9 mph 0.50 in Rain , Thunderstorm Heavy Thunderstorms and Rain
6:21 PM 66.2 °F 64.4 °F 94% 29.74 in 1.8 mi SSE 13.8 mph 21.9 mph 0.61 in Rain , Thunderstorm Heavy Thunderstorms and Rain
6:25 PM 66.2 °F 64.4 °F 94% 29.70 in 2.5 mi ESE 11.5 mph 21.9 mph 0.62 in Rain , Thunderstorm Thunderstorms and Rain
6:32 PM 64.4 °F 62.6 °F 94% 29.68 in 8.0 mi ESE 17.3 mph 21.9 mph 0.62 in Rain , Thunderstorm Light Thunderstorms and Rain
6:48 PM 64.4 °F 62.6 °F 94% 29.70 in - SSE 17.3 mph 24.2 mph 0.64 in Rain , Thunderstorm Light Thunderstorms and Rain
8:02 PM 66.2 °F 62.6 °F 88% 29.75 in 8.0 mi South 16.1 mph 23.0 mph 0.01 in Rain , Thunderstorm Light Rain
8:27 PM 66.2 °F 64.4 °F 94% 29.72 in 10.0 mi South 15.0 mph 25.3 mph 0.03 in Rain Light Rain
9:52 PM 66.9 °F 64.0 °F 90% 29.68 in 10.0 mi South 12.7 mph 18.4 mph N/A   Partly Cloudy
10:52 PM 64.0 °F 61.0 °F 90% 29.68 in 10.0 mi SSW 5.8 mph - N/A   Scattered Clouds